Regional Weather Roundup
Issued by NWS Goodland, KS

Home | Current Version | Previous Version | Graphics & Text | Print | Product List | Glossary On
Versions: 1 2 3 4 5 6 7 8 9 10 11 12 13 14 15 16 17 18 19 20 21 22 23 24 25 26 27 28 29 30 31 32 33 34 35 36 37 38 39 40 41 42 43 44 45 46 47 48 49 50
438
ASUS43 KGLD 250808
RWRGLD

GOODLAND FORECAST AREA HOURLY WEATHER ROUNDUP
NATIONAL WEATHER SERVICE GOODLAND KS
200 AM MDT WED APR 25 2018

...OFFICIAL OBSERVATIONS...

CITY           SKY/WX    TMP DP  RH WIND       PRES   REMARKS
GOODLAND KS    CLEAR     32  30  92 NW14      30.35F
HILL CITY KS   CLOUDY    40  37  89 N20G26    30.33F
IMPERIAL NEB   CLOUDY    37  32  82 NW10      30.38F
MCCOOK NEB     CLOUDY    38  34  85 N14       30.35F
AKRON CO       MOCLDY    29  27  92 W10       30.39F WCI  20
BURLINGTON CO  CLEAR     32  29  88 N13       30.37F
LIMON CO       PTCLDY    28  26  92 NW8       30.38F
$$

...UNOFFICIAL OBSERVATIONS...

CITY           SKY/WX    TMP DP  RH WIND       PRES   REMARKS
COLBY KS         N/A     36  34  93 N15G21    30.36F
NORTON KS      CLOUDY    39  36  87 NW15      30.31
SHARON SPRINGS   N/A     34  31  90 NW12        N/A
KIT CARSON CO    N/A     30  27  88 CALM        N/A
YUMA CO        CLOUDY    28  27  93 NW8       30.39F
$$




USA.gov is the U.S. government's official web portal to all federal, state and local government web resources and services.